User: anonymous   Login
Location: B?jaj?g
(11.7167°N, 92.6667°E)
Time: 11:12:58
(UTC+00:00)
Language:

Cosmos 1300 Rocket - Orbit

View from above orbital plane
View from above orbital plane
View from above satellite
View from above satellite

Ground track
Ground track

The orbit data is extracted from the following two-line orbital elements,

1 12786U 81082B   21135.85724467  .00000093  00000-0  81318-5 0  9996
2 12786  82.4907  61.0777 0016581 214.4082 145.6062 14.84829482125716
Epoch (UTC): 15 May 2021 20:34:25
Eccentricity: 0.0016581
inclination: 82.4907°
perigee height: 602 km
apogee height: 626 km
right ascension of ascending node: 61.0777°
argument of perigee: 214.4082°
revolutions per day: 14.84829482
mean anomaly at epoch: 145.6062°
orbit number at epoch: 12571

The dashed part of the orbit path shows where the satellite is in the earth's shadow,  

DLR